SCOUT A R/B, 2120

Orbit data source: Space-Track

SCOUT A R/B, 2120 is space debris in LEO originally from a launch on Sat, 26 Mar 1966 UTC launched from the Air Force Western Test Range (AFWTR). Debris objects in space refer to the collection of defunct objects orbiting the Earth. Examples of debris include non-operational satellites, rocket bodies, and fragments generated from explosions, collisions, or faulty payload assembly.

Loading next visibility...
SCOUT A R/B details
Identifier
2120, 1966-024B
Orbit
LEO
Last TLE update17 hours ago
Origin
Flag of USNASA LaRC (US)
ManufacturerABL
MissionSpacecraft
Bus & MotorALTAIR, Unknown motor
Mass33 kg wet, 33 kg dry
Launch date (UTC)
1966-03-26 (59 years ago)
Launch vehicleUnknown
Launch site
Air Force Western Test Range (AFWTR)
Object type
Payload
Rocket body
Debris
Shape & HBRCyl, 1.5 m
Radar Cross Section0.687 m², Medium (>0.1 m² and < 1m²)

Expand to show TLE details & history

TLE from 17 hours ago
0 SCOUT A R/B
1 02120U 66024B   24355.77057429  .00000149  00000-0  13847-3 0  9993
2 02120  89.8148 182.1244 0153399  48.9870 312.4441 13.72477847937371
Epoch: 2024-12-20T18:29Z
Definitive object data (Epoch: 2024-12-20T18:29:37.618Z)
Latitude0.00005°
Longitude174.88634°
Altitude918.333 km
Speed7.43 km/s
True Right ascension12h 08m 29s
True Declination0° 00' 00"
Sunlit
Object was in daylight at TLE epoch
Visualization TLE readout
Latitude-20.40493°
Longitude174.80374°
Altitude952.842 km
Speed7.397 km/s
Apparent Right ascension14h 26m 30s
Apparent Declination-67° 48' 58"
Sunlit
Object is in daylight
Visualization observer readout
Local Sidereal Time10:55:20
Azimuth160.658° S
Elevation-24.774°
Doppler factor1
Orbital elements
Apogee altitude1,100.696 km
Perigee altitude874.713 km
Semi-major axis7,365.842 km
Eccentricity0.0153399
Inclination89.8148°
RAAN182.1244°
Arg. of periapsis48.987°
True anomaly311.13006°
Mean anomaly312.4441°
Eccentric anomaly311.78878°
Mean motion3.43328 °/min
BSTAR0.00013847
Orbital period104.86 mins
Loading maneuver chart data...
Loading historical data...
Loading historical data...
Loading historical data...
Loading historical data...
Loading historical data...
Loading historical data...
Loading historical data...

SCOUT A R/B Visibility forecast

Observer location: undefined°, undefined

Span
Click to sort rows by Start time (UTC) header in descending order
Start Az.
Max El. time (UTC)
Max El. Az.
Max El.
End time (UTC)
End Az.
9 mins2024-12-21 12:06:37.765Z134.475° SE2024-12-21 12:11:37.765Z68.803° E25.609°2024-12-21 12:15:37.765Z21.805° NNE
8 mins2024-12-21 13:52:37.765Z224.18° SW2024-12-21 13:55:37.765Z271.761° WNW28.952°2024-12-21 14:00:37.765Z337.979° N
11 mins2024-12-22 00:49:37.765Z7.013° NNE2024-12-22 00:54:37.765Z123.529° SE43.902°2024-12-22 01:00:37.765Z177.645° S
5 mins2024-12-22 02:36:37.765Z306.281° NW2024-12-22 02:38:37.765Z284.554° WNW15.015°2024-12-22 02:41:37.765Z255.324° W
|